sat.trackr.live / text

‹ back to catalog

STARLINK-35540

NORAD 66151 · 2025-240F

PAYLOAD ACTIVE UNKNOWN

§ Identity

Operator
Country
US
Launch date
2025-10-25
Launch site
AFWTR
Launch vehicle
Mass (kg)
RCS (m²)

Purposes: comms

External: N2YO · Heavens-Above · Gunter

§ Orbital elements

Epoch: 2026-05-25T04:43:55.260768Z

Period
93.85 min
Inclination
53.1599°
Eccentricity
0.0001180
Mean motion
15.34402794 rev/d
Perigee alt
461.9 km
Apogee alt
463.5 km
Semi-major
6,840.8 km
B*
8.0109e-4
RAAN
66.6220°
Arg perigee
88.2293°
Mean anomaly
271.8844°
Rev number
3,371

§ Raw data

STARLINK-355401 66151U 25240F   26145.19716737  .00026789  00000+0  80109-3 0  99932 66151  53.1599  66.6220 0001180  88.2293 271.8844 15.34402794 33714

JSON: /api/v1/satellites/66151 · /tle

For live sub-satellite position, see the globe view (requires WebGL).

§ Visibility from observer

Set your observer location to see the next 7 days of passes ≥ 10°. The values pass through the URL so the page stays shareable.

No JS? Fill the form by hand. The geolocation button needs JavaScript.